Location: Lake Arresoe
(56.0000°N, 12.5000°E)
Time: 12:28:25
(UTC+02:00)

Cosmos 2058 - Pass Details

Date: 03 August 2021
Orbit: 560 x 584 km, 82.5° (Epoch: 22 September)

Event Time Altitude Azimuth Distance (km) Brightness Sun altitude
Rises 21:55:32 0° 227° (SW) 2,800 6.5 -5.5°
Reaches altitude 10° 21:58:04 10° 242° (WSW) 1,907 5.8 -5.8°
Maximum altitude 22:01:31 24° 297° (WNW) 1,236 5.7 -6.1°
Drops below altitude 10° 22:04:59 10° 352° (N) 1,921 6.5 -6.5°
Sets 22:07:33 0° 6° (N) 2,826 7.1 -6.7°
